Flag for Turkey Weather past 2 weeks in Ankara, Turkey

Now
50 °F

Scattered clouds.


Feels Like: 48 °F
Forecast: 37 / 61 °F
Wind: 5 mph from South

Location: Ankara / Esenboga

Current Time: Mar 28, 2015 at 6:40:13 PM

Latest Report: Mar 28, 2015 at 5:50 PM


Visibility: N/A

Pressure: 29.74 "Hg

Humidity: 76%

Dew point: 43 °F

Location of AnkaraLocation

Historic Weather in Ankara — Graph

°F

Ankara temperature yesterday

Maximum temperature yesterday: 59 °F (at 11:20 AM)
Minimum temperature yesterday: 43 °F (at 3:20 AM)
Average temperature yesterday: 51 °F

Past Weeks' High & Low Weather Summary

 TemperatureHumidityPressure
High63 °F (Mar 26, 1:50 PM)100% (Mar 14, 7:20 AM)30.27 "Hg (Mar 14, 7:20 AM)
Low28 °F (Mar 21, 12:20 AM)23% (Mar 17, 2:50 PM)29.68 "Hg (Mar 28, 10:50 AM)
Average41 °F71%30.04 "Hg
* Reported Mar 13 5:20 PM — Mar 28 5:20 PM, Ankara, Weather by CustomWeather, © 2015

Note: Actual official high and low records may vary slightly from our data, if they occured in-between our weather recording intervals... More about our weather records

Advertising

Ankara weather history for previous 24 hours

 ConditionsComfort  
Time TempWeatherWind HumidityBarometerVisibility
5:20 PM
Sat, Mar 28
52 °FScattered clouds.7 mph72%29.74 "HgN/A
4:50 PM52 °FBroken clouds.12 mph72%29.74 "HgN/A
4:20 PM52 °FBroken clouds.12 mph72%29.74 "HgN/A
3:50 PM50 °FBroken clouds.12 mph82%29.71 "HgN/A
3:20 PM50 °FBroken clouds.9 mph76%29.71 "HgN/A
2:50 PM48 °FBroken clouds.10 mph82%29.71 "HgN/A
2:20 PM48 °FSprinkles. Partly sunny.6 mph82%29.71 "HgN/A
1:50 PM48 °FSprinkles. Partly sunny.8 mph82%29.74 "HgN/A
1:20 PM48 °FSprinkles. Partly sunny.21 mph82%29.74 "HgN/A
12:50 PM48 °FSprinkles. Partly sunny.13 mph82%29.71 "HgN/A
12:20 PM48 °FRain showers. Partly sunny.9 mph87%29.68 "Hg5 mi
11:50 AM48 °FSprinkles. Partly sunny.3 mph94%29.68 "HgN/A
11:20 AM48 °FSprinkles. Partly sunny.6 mph94%29.68 "Hg5 mi
10:50 AM48 °FRain showers. Partly sunny.6 mph94%29.68 "Hg4 mi
10:20 AM48 °FRain showers. Partly sunny.5 mph94%29.71 "Hg4 mi
9:50 AM48 °FRain showers. Partly sunny.3 mph94%29.71 "Hg4 mi
9:20 AM48 °FRain showers. Partly sunny.6 mph94%29.71 "Hg4 mi
8:50 AM48 °FSprinkles. Partly sunny.5 mph94%29.74 "HgN/A
8:20 AM48 °FSprinkles. Partly sunny.5 mph87%29.74 "HgN/A
7:50 AM50 °FSprinkles. Partly sunny.5 mph76%29.74 "HgN/A
7:20 AM50 °FSprinkles. Partly sunny.1 mph82%29.74 "HgN/A
6:50 AM48 °FSprinkles. Partly sunny.3 mph87%29.77 "HgN/A
6:20 AM50 °FRain showers. Partly sunny.9 mph82%29.77 "Hg4 mi
5:50 AM50 °FSprinkles. Partly sunny.13 mph82%29.74 "HgN/A
5:20 AM50 °FSprinkles. Passing clouds.12 mph88%29.77 "HgN/A
4:50 AM48 °FSprinkles. Passing clouds.8 mph94%29.77 "HgN/A
4:20 AM48 °FRain showers. Passing clouds.5 mph94%29.77 "Hg4 mi
3:50 AM48 °FRain showers. Passing clouds.1 mph94%29.77 "Hg4 mi
3:20 AM48 °FSprinkles. Passing clouds.2 mph94%29.80 "Hg4 mi
2:50 AM48 °FSprinkles. Passing clouds.3 mph94%29.80 "Hg4 mi
2:20 AM48 °FSprinkles. Passing clouds.3 mph94%29.80 "Hg4 mi
1:50 AM48 °FSprinkles. Passing clouds.5 mph94%29.83 "Hg5 mi
1:20 AM48 °FSprinkles. Passing clouds.7 mph94%29.83 "Hg5 mi
12:50 AM48 °FSprinkles. Passing clouds.7 mph94%29.86 "Hg4 mi
12:20 AM48 °FSprinkles. Passing clouds.7 mph94%29.86 "HgN/A
11:50 PM
Fri, Mar 27
48 °FSprinkles. Passing clouds.6 mph94%29.89 "HgN/A
11:20 PM48 °FSprinkles. Passing clouds.3 mph94%29.89 "HgN/A
10:50 PM48 °FSprinkles. Passing clouds.2 mph94%29.92 "HgN/A
10:20 PM50 °FSprinkles. Passing clouds.3 mph88%29.92 "HgN/A
9:50 PM50 °FSprinkles. Passing clouds.2 mph88%29.92 "HgN/A
9:20 PM50 °FSprinkles. Passing clouds.3 mph88%29.95 "HgN/A
8:50 PM50 °FPassing clouds.6 mph88%29.95 "HgN/A
8:20 PM52 °FSprinkles. Passing clouds.6 mph82%29.95 "HgN/A
7:50 PM52 °FSprinkles. Passing clouds.7 mph88%29.95 "HgN/A
7:20 PM52 °FSprinkles. Passing clouds.6 mph88%29.98 "HgN/A
6:50 PM52 °FSprinkles. Passing clouds.7 mph88%29.95 "Hg6 mi
6:20 PM52 °FSprinkles. Passing clouds.8 mph88%29.95 "Hg6 mi
Weather by CustomWeather, © 2015

See weather overviewHow to use our weather pages